Location: ??
(34.9170°N, 135.5016°E)
Time: 23:51:57
(UTC+00:00)

RS-15 - Pass Details

Date: 20 April 2021
Orbit: 1888 x 2157 km, 64.8° (Epoch: 12 May)

Event Time Altitude Azimuth Distance (km) Brightness Sun altitude
Rises 15:04:24 0° 322° (NW) 5,460 10.9 -43.3°
Reaches altitude 10° 15:10:23 10° 345° (NNW) 4,518 10.5 -43.2°
Maximum altitude 15:16:21 15° 17° (NNE) 4,185 10.3 -43.1°
Drops below altitude 10° 15:22:25 10° 48° (NE) 4,619 10.4 -42.9°
Sets 15:28:38 0° 71° (ENE) 5,657 10.8 -42.7°
